Weather History for Frenchville, ME

Change the Weather History Date:

Wednesday, November 7, 2012

  Actual Average Record
Temperature  
Mean Temperature 25 °F 34 °F  
Max Temperature 36 °F 40 °F 54 °F (2011)
Min Temperature 13 °F 28 °F 9 °F (2002)
Degree Days  
Heating Degree Days 40    
Month to date heating degree days 209  
Since 1 July heating degree days 1172  
Cooling Degree Days 0    
Month to date cooling degree days 0  
Year to date cooling degree days 203  
Moisture  
Dew Point 17 °F    
Average Humidity 70    
Maximum Humidity 92    
Minimum Humidity 50    
Precipitation  
Precipitation 0.00 in 0.09 in 0.63 in (2005)
Month to date precipitation 0.15 0.64  
Year to date precipitation 29.81 28.76  
Sea Level Pressure  
Sea Level Pressure 30.23 in    
Wind  
Wind Speed 7 mph (North)    
Max Wind Speed 16 mph    
Max Gust Speed 18 mph    
Visibility 10 miles    
Events      
T = Trace of Precipitation, MM = Missing Value Source: NWS Daily Summary

Daily Weather History Graph

Daily Weather History Graph

Search for Another Location

Airport:

Trip Planner

Search our weather history database for the weather conditions in past years. The results will help you decide how hot, cold, wet, or windy it might be!

Date:

Astronomy

Nov. 07, 2012 Rise Set
Actual Time 6:26 AM EST 4:07 PM EST
Civil Twilight 5:53 AM EST 4:39 PM EST
Nautical Twilight 5:16 AM EST 5:16 PM EST
Astronomical Twilight 4:41 AM EST 5:51 PM EST
Moon 11:55 PM EST (11/7) 12:39 PM EST (11/7)
Length of Visible Light 10h 46m
Length of Day
9h 40m
Last Quarter, 43% of the Moon is Illuminated
Nov 7
Last Quarter
Nov 13
New
Nov 20
First Quarter
Nov 28
Full
Dec 6
Last Quarter

Hourly Weather History & Observations

Time (EST) Temp. Windchill Dew Point Humidity Pressure Visibility Wind Dir Wind Speed Gust Speed Precip Events Conditions
12:53 AM 17.1 °F 10.0 °F 12.0 °F 81% 30.23 in 10.0 mi WSW 4.6 mph - N/A   Clear
1:53 AM 18.0 °F 9.8 °F 12.0 °F 78% 30.24 in 10.0 mi West 5.8 mph - N/A   Clear
2:53 AM 18.0 °F 8.7 °F 12.9 °F 81% 30.25 in 10.0 mi West 6.9 mph - N/A   Clear
3:53 AM 19.0 °F 12.3 °F 12.0 °F 74% 30.25 in 10.0 mi NW 4.6 mph - N/A   Clear
4:53 AM 18.0 °F 12.7 °F 12.0 °F 78% 30.27 in 10.0 mi WSW 3.5 mph - N/A   Clear
5:53 AM 12.9 °F 5.2 °F 10.9 °F 92% 30.29 in 10.0 mi NW 4.6 mph - N/A   Clear
6:53 AM 15.1 °F 5.2 °F 12.0 °F 88% 30.33 in 10.0 mi SSW 6.9 mph - N/A   Clear
7:53 AM 19.0 °F - 14.0 °F 81% 30.32 in 10.0 mi Calm Calm - N/A   Clear
8:53 AM 25.0 °F 16.3 °F 16.0 °F 69% 30.32 in 10.0 mi North 8.1 mph - N/A   Clear
9:53 AM 26.1 °F 15.6 °F 16.0 °F 66% 30.30 in 10.0 mi North 11.5 mph - N/A   Clear
10:53 AM 28.9 °F 20.4 °F 17.1 °F 61% 30.28 in 10.0 mi NNW 9.2 mph 17.3 mph N/A   Clear
11:53 AM 33.1 °F 26.1 °F 17.1 °F 52% 30.25 in 10.0 mi NNW 8.1 mph - N/A   Clear
12:53 PM 34.0 °F 27.2 °F 18.0 °F 52% 30.22 in 10.0 mi NNW 8.1 mph - N/A   Clear
1:53 PM 35.1 °F 27.4 °F 18.0 °F 50% 30.21 in 10.0 mi NNE 10.4 mph - N/A   Clear
2:53 PM 36.0 °F 30.3 °F 19.0 °F 50% 30.22 in 10.0 mi North 6.9 mph - N/A   Clear
3:53 PM 33.1 °F 28.7 °F 18.0 °F 54% 30.21 in 10.0 mi North 4.6 mph - N/A   Clear
4:53 PM 30.0 °F 23.2 °F 18.0 °F 61% 30.21 in 10.0 mi NNE 6.9 mph - N/A   Clear
5:53 PM 28.9 °F 20.4 °F 19.0 °F 67% 30.19 in 10.0 mi NNE 9.2 mph - N/A   Clear
6:53 PM 28.0 °F 19.3 °F 19.0 °F 69% 30.19 in 10.0 mi North 9.2 mph - N/A   Clear
7:53 PM 27.0 °F 18.7 °F 18.0 °F 69% 30.19 in 10.0 mi NNE 8.1 mph - N/A   Clear
8:53 PM 27.0 °F 18.7 °F 19.0 °F 72% 30.18 in 10.0 mi NNE 8.1 mph 16.1 mph N/A   Clear
9:32 PM 28.4 °F 19.1 °F 21.2 °F 74% 30.14 in 10.0 mi NE 10.4 mph - N/A   Mostly Cloudy
9:53 PM 28.9 °F 19.2 °F 21.0 °F 72% 30.18 in 10.0 mi NE 11.5 mph - N/A   Overcast
10:53 PM 28.0 °F 17.5 °F 21.0 °F 75% 30.15 in 10.0 mi NNE 12.7 mph - N/A   Overcast
11:53 PM 28.9 °F 21.9 °F 21.9 °F 75% 30.15 in 10.0 mi NE 6.9 mph - N/A   Overcast